Flag for Japan Weather past 2 weeks in Hiroshima, Japan

Now
61 °F

Partly cloudy.


Feels Like: 61 °F
Forecast: 54 / 75 °F
Wind: 6 mph from Northwest

Location: Iwakuni Marine Corps Air Station

Current Time: Sep 21, 2014 at 5:52:24 AM

Latest Report: Sep 21, 2014 at 4:55 AM


Visibility: N/A

Pressure: 29.99 "Hg

Humidity: 70%

Dew point: 51 °F

Location of HiroshimaLocation

Historic Weather in Hiroshima — Graph

°F

Hiroshima temperature yesterday

Maximum temperature yesterday: 76 °F (at 2:55 PM)
Minimum temperature yesterday: 65 °F (at 2:55 AM)
Average temperature yesterday: 69 °F

Past Weeks' High & Low Weather Summary

 TemperatureHumidityPressure
High86 °F (Sep 9, 2:55 PM)84% (Sep 6, 11:55 PM)30.02 "Hg (Sep 6, 11:55 PM)
Low61 °F (Sep 21, 3:55 AM)33% (Sep 9, 2:55 PM)29.61 "Hg (Sep 8, 2:55 PM)
Average75 °F58%29.87 "Hg
* Reported Sep 6 3:55 AM — Sep 21 3:55 AM, Hiroshima, Weather by CustomWeather, © 2014

Note: Actual official high and low records may vary slightly from our data, if they occured in-between our weather recording intervals... More about our weather records

Advertising

Hiroshima weather history for previous 24 hours

 ConditionsComfort  
Time TempWeatherWind HumidityBarometerVisibility
3:55 AM
Sep 21
61 °FPassing clouds.6 mph70%29.99 "HgN/A
2:55 AM62 °FPassing clouds.7 mph67%29.99 "HgN/A
9:55 PM
Sep 20
65 °FPassing clouds.5 mph63%29.98 "HgN/A
8:55 PM66 °FPassing clouds.6 mph59%29.98 "HgN/A
7:55 PM68 °FPassing clouds.5 mph55%29.96 "HgN/A
6:55 PM71 °FPassing clouds.6 mph47%29.94 "HgN/A
5:55 PM73 °FScattered clouds.5 mph43%29.93 "HgN/A
4:55 PM74 °FBroken clouds.3 mph40%29.92 "HgN/A
3:55 PM74 °FPartly sunny.7 mph38%29.90 "HgN/A
2:55 PM76 °FPartly sunny.12 mph36%29.91 "HgN/A
1:55 PM74 °FPartly sunny.14 mph40%29.90 "HgN/A
12:55 PM72 °FPartly sunny.12 mph46%29.92 "HgN/A
11:55 AM72 °FPartly sunny.9 mph49%29.94 "HgN/A
10:55 AM70 °FPartly sunny.9 mph55%29.94 "HgN/A
9:55 AM69 °FMostly cloudy.10 mph59%29.95 "HgN/A
7:55 AM68 °FMostly cloudy.10 mph61%29.93 "HgN/A
6:55 AM68 °FMostly cloudy.10 mph63%29.89 "HgN/A
5:55 AM66 °FMostly cloudy.5 mph70%29.91 "HgN/A
Weather by CustomWeather, © 2014

See weather overviewHow to use our weather pages